Time,TemperatureF,DewpointF,PressureIn,WindDirection,WindDirectionDegrees,WindSpeedMPH,WindSpeedGustMPH,Humidity,HourlyPrecipIn,Conditions,Clouds,dailyrainin,SoftwareType,DateUTC
2014-12-28 00:04:00,68.0,67.7,30.03,South,170,2.0,4.0,99,0.00,,SKC,0.00,VWS V14.01,2014-12-28 06:04:00,
2014-12-28 00:09:00,68.1,67.8,30.03,SSE,167,4.0,5.0,99,0.00,,SKC,0.00,VWS V14.01,2014-12-28 06:09:00,
2014-12-28 00:14:00,67.9,67.6,30.03,South,169,1.0,5.0,99,0.00,,SKC,0.00,VWS V14.01,2014-12-28 06:14:00,
2014-12-28 00:19:00,67.6,67.3,30.02,South,171,3.0,5.0,99,0.00,,SKC,0.00,VWS V14.01,2014-12-28 06:19:00,
2014-12-28 00:24:00,67.4,67.1,30.02,South,179,2.0,5.0,99,0.00,,SKC,0.00,VWS V14.01,2014-12-28 06:24:00,
2014-12-28 00:29:00,67.3,67.0,30.02,South,180,1.0,5.0,99,0.00,,SKC,0.00,VWS V14.01,2014-12-28 06:29:00,
2014-12-28 00:34:00,67.1,66.8,30.02,South,181,0.0,3.0,99,0.00,,SKC,0.00,VWS V14.01,2014-12-28 06:34:00,
2014-12-28 00:39:00,67.0,66.7,30.02,South,181,0.0,3.0,99,0.00,,SKC,0.00,VWS V14.01,2014-12-28 06:39:00,
2014-12-28 00:44:00,66.9,66.6,30.02,South,184,1.0,3.0,99,0.00,,SKC,0.00,VWS V14.01,2014-12-28 06:44:00,
2014-12-28 00:49:00,66.9,66.6,30.02,South,184,0.0,3.0,99,0.00,,SKC,0.00,VWS V14.01,2014-12-28 06:49:00,
2014-12-28 00:54:00,66.9,66.6,30.02,South,184,1.0,3.0,99,0.00,,SKC,0.00,VWS V14.01,2014-12-28 06:54:00,
2014-12-28 00:59:00,67.1,66.8,30.02,South,183,2.0,4.0,99,0.00,,SKC,0.00,VWS V14.01,2014-12-28 06:59:00,
2014-12-28 01:04:00,67.4,67.1,30.02,South,171,4.0,7.0,99,0.00,,SKC,0.00,VWS V14.01,2014-12-28 07:04:00,
2014-12-28 01:09:00,67.7,67.4,30.02,SSE,167,4.0,8.0,99,0.00,,SKC,0.00,VWS V14.01,2014-12-28 07:09:00,
2014-12-28 01:14:00,67.9,67.6,30.02,SSE,157,3.0,8.0,99,0.00,,SKC,0.00,VWS V14.01,2014-12-28 07:14:00,
2014-12-28 01:19:00,67.8,67.5,30.03,South,181,3.0,8.0,99,0.00,,SKC,0.00,VWS V14.01,2014-12-28 07:19:00,
2014-12-28 01:24:00,66.7,66.4,30.03,South,171,2.0,8.0,99,0.00,,SKC,0.00,VWS V14.01,2014-12-28 07:24:00,
2014-12-28 01:29:00,66.4,66.1,30.03,South,171,3.0,8.0,99,0.00,,SKC,0.00,VWS V14.01,2014-12-28 07:29:00,
2014-12-28 01:34:00,66.6,66.3,30.03,South,171,0.0,4.0,99,0.00,,SKC,0.00,VWS V14.01,2014-12-28 07:34:00,
2014-12-28 01:39:00,66.7,66.4,30.03,South,171,0.0,4.0,99,0.00,,SKC,0.00,VWS V14.01,2014-12-28 07:39:00,
2014-12-28 01:44:00,66.7,66.4,30.03,South,171,1.0,4.0,99,0.00,,SKC,0.00,VWS V14.01,2014-12-28 07:44:00,
2014-12-28 01:49:00,66.9,66.6,30.03,South,175,1.0,4.0,99,0.00,,SKC,0.00,VWS V14.01,2014-12-28 07:49:00,
2014-12-28 01:54:00,67.0,66.7,30.03,South,175,1.0,4.0,99,0.00,,SKC,0.00,VWS V14.01,2014-12-28 07:54:00,
2014-12-28 01:59:00,67.1,66.8,30.03,South,177,3.0,4.0,99,0.00,,SKC,0.00,VWS V14.01,2014-12-28 07:59:00,
2014-12-28 02:04:00,67.5,67.2,30.03,SSE,162,5.0,7.0,99,0.00,,SKC,0.00,VWS V14.01,2014-12-28 08:04:00,
2014-12-28 02:09:00,67.6,67.3,30.03,South,175,2.0,7.0,99,0.00,,SKC,0.00,VWS V14.01,2014-12-28 08:09:00,
2014-12-28 02:14:00,67.6,67.3,30.03,SSE,161,4.0,8.0,99,0.00,,SKC,0.00,VWS V14.01,2014-12-28 08:14:00,
2014-12-28 02:19:00,67.4,67.1,30.03,South,173,2.0,8.0,99,0.00,,SKC,0.00,VWS V14.01,2014-12-28 08:19:00,
2014-12-28 02:24:00,67.0,66.7,30.03,SSE,168,2.0,8.0,99,0.00,,SKC,0.00,VWS V14.01,2014-12-28 08:24:00,
2014-12-28 02:29:00,66.9,66.6,30.03,SSE,168,1.0,8.0,99,0.00,,SKC,0.00,VWS V14.01,2014-12-28 08:29:00,
2014-12-28 02:34:00,67.3,67.0,30.03,South,183,3.0,8.0,99,0.00,,SKC,0.00,VWS V14.01,2014-12-28 08:34:00,
2014-12-28 02:39:00,67.2,66.9,30.03,South,183,0.0,8.0,99,0.00,,SKC,0.00,VWS V14.01,2014-12-28 08:39:00,
2014-12-28 02:44:00,67.0,66.7,30.03,SSW,193,0.0,8.0,99,0.00,,SKC,0.00,VWS V14.01,2014-12-28 08:44:00,
2014-12-28 02:49:00,66.9,66.6,30.03,South,182,0.0,8.0,99,0.00,,SKC,0.00,VWS V14.01,2014-12-28 08:49:00,
2014-12-28 02:54:00,66.8,66.5,30.03,South,183,0.0,8.0,99,0.00,,SKC,0.00,VWS V14.01,2014-12-28 08:54:00,
2014-12-28 02:59:00,66.9,66.6,30.03,South,183,0.0,8.0,99,0.00,,SKC,0.00,VWS V14.01,2014-12-28 08:59:00,
2014-12-28 03:04:00,67.0,66.7,30.03,South,183,1.0,1.0,99,0.00,,SKC,0.00,VWS V14.01,2014-12-28 09:04:00,
2014-12-28 03:09:00,67.1,66.8,30.03,South,183,1.0,3.0,99,0.00,,SKC,0.00,VWS V14.01,2014-12-28 09:09:00,
2014-12-28 03:14:00,67.3,67.0,30.03,South,183,2.0,3.0,99,0.00,,SKC,0.00,VWS V14.01,2014-12-28 09:14:00,
2014-12-28 03:19:00,67.5,67.2,30.03,South,169,3.0,5.0,99,0.00,,SKC,0.00,VWS V14.01,2014-12-28 09:19:00,
2014-12-28 03:24:00,67.7,67.4,30.03,South,172,3.0,8.0,99,0.00,,SKC,0.00,VWS V14.01,2014-12-28 09:24:00,
2014-12-28 03:29:00,67.5,67.2,30.03,South,171,4.0,8.0,99,0.00,,SKC,0.00,VWS V14.01,2014-12-28 09:29:00,
2014-12-28 03:34:00,67.3,67.0,30.03,South,173,0.0,5.0,99,0.00,,SKC,0.00,VWS V14.01,2014-12-28 09:34:00,
2014-12-28 03:39:00,67.0,66.7,30.03,South,175,0.0,5.0,99,0.00,,SKC,0.00,VWS V14.01,2014-12-28 09:39:00,
2014-12-28 03:44:00,66.8,66.5,30.03,SSE,167,3.0,5.0,99,0.00,,SKC,0.00,VWS V14.01,2014-12-28 09:44:00,
2014-12-28 03:50:00,66.8,66.5,30.03,SSE,164,3.0,6.0,99,0.00,,SKC,0.00,VWS V14.01,2014-12-28 09:50:00,
2014-12-28 03:55:00,67.0,66.7,30.03,SSE,167,0.0,6.0,99,0.00,,SKC,0.00,VWS V14.01,2014-12-28 09:55:00,
2014-12-28 04:00:00,66.8,66.5,30.03,SSE,167,0.0,6.0,99,0.00,,SKC,0.00,VWS V14.01,2014-12-28 10:00:00,
2014-12-28 04:05:00,66.3,66.0,30.03,SSE,167,0.0,3.0,99,0.00,,SKC,0.00,VWS V14.01,2014-12-28 10:05:00,
2014-12-28 04:10:00,66.0,65.7,30.03,SSE,167,0.0,3.0,99,0.00,,SKC,0.00,VWS V14.01,2014-12-28 10:10:00,
2014-12-28 04:15:00,65.9,65.6,30.03,SSE,167,0.0,3.0,99,0.00,,SKC,0.00,VWS V14.01,2014-12-28 10:15:00,
2014-12-28 04:20:00,65.8,65.5,30.03,SSE,167,0.0,3.0,99,0.00,,SKC,0.00,VWS V14.01,2014-12-28 10:20:00,
2014-12-28 04:25:00,66.0,65.7,30.03,SSE,167,3.0,3.0,99,0.00,,SKC,0.00,VWS V14.01,2014-12-28 10:25:00,
2014-12-28 04:30:00,66.1,65.8,30.03,SSE,167,0.0,3.0,99,0.01,,SKC,0.01,VWS V14.01,2014-12-28 10:30:00,
2014-12-28 04:35:00,66.1,65.8,30.04,SSE,167,0.0,2.0,99,0.01,,SKC,0.01,VWS V14.01,2014-12-28 10:35:00,
2014-12-28 04:40:00,66.3,66.0,30.04,SSE,167,0.0,2.0,99,0.01,,SKC,0.01,VWS V14.01,2014-12-28 10:40:00,
2014-12-28 04:45:00,66.5,66.2,30.03,SSE,167,0.0,2.0,99,0.01,,SKC,0.01,VWS V14.01,2014-12-28 10:45:00,
2014-12-28 04:50:00,66.4,66.4,30.03,SSE,167,0.0,2.0,100,0.01,,SKC,0.01,VWS V14.01,2014-12-28 10:50:00,
2014-12-28 04:55:00,66.4,66.4,30.03,SSE,167,0.0,2.0,100,0.01,,SKC,0.01,VWS V14.01,2014-12-28 10:55:00,
2014-12-28 05:00:00,66.4,66.4,30.04,SSE,167,0.0,2.0,100,0.01,,SKC,0.01,VWS V14.01,2014-12-28 11:00:00,
2014-12-28 05:05:00,66.2,66.2,30.04,SSE,167,0.0,0.0,100,0.01,,SKC,0.01,VWS V14.01,2014-12-28 11:05:00,
2014-12-28 05:10:00,66.0,65.7,30.04,SSE,168,4.0,5.0,99,0.01,,SKC,0.01,VWS V14.01,2014-12-28 11:10:00,
2014-12-28 05:15:00,66.0,65.7,30.04,SSE,162,3.0,6.0,99,0.01,,SKC,0.01,VWS V14.01,2014-12-28 11:15:00,
2014-12-28 05:20:00,66.1,66.1,30.04,SSE,166,4.0,6.0,100,0.01,,SKC,0.01,VWS V14.01,2014-12-28 11:20:00,
2014-12-28 05:25:00,66.0,65.7,30.04,SSE,165,5.0,6.0,99,0.01,,SKC,0.01,VWS V14.01,2014-12-28 11:25:00,
2014-12-28 05:30:00,65.8,65.5,30.04,SSE,165,3.0,6.0,99,0.01,,SKC,0.01,VWS V14.01,2014-12-28 11:30:00,
2014-12-28 05:35:00,65.7,65.4,30.05,SSE,161,4.0,5.0,99,0.00,,SKC,0.01,VWS V14.01,2014-12-28 11:35:00,
2014-12-28 05:40:00,65.6,65.3,30.05,South,170,5.0,7.0,99,0.00,,SKC,0.01,VWS V14.01,2014-12-28 11:40:00,
2014-12-28 05:45:00,65.5,65.5,30.05,South,169,6.0,7.0,100,0.00,,SKC,0.01,VWS V14.01,2014-12-28 11:45:00,
2014-12-28 05:50:00,65.3,65.0,30.04,SSE,167,2.0,7.0,99,0.00,,SKC,0.01,VWS V14.01,2014-12-28 11:50:00,
2014-12-28 05:55:00,65.1,64.8,30.05,SSE,167,2.0,7.0,99,0.00,,SKC,0.01,VWS V14.01,2014-12-28 11:55:00,
2014-12-28 06:00:00,65.1,64.8,30.05,SSE,167,1.0,7.0,99,0.00,,SKC,0.01,VWS V14.01,2014-12-28 12:00:00,
2014-12-28 06:05:00,65.1,64.8,30.05,SSE,167,0.0,2.0,99,0.00,,SKC,0.01,VWS V14.01,2014-12-28 12:05:00,
2014-12-28 06:10:00,65.1,65.1,30.04,SSE,167,0.0,2.0,100,0.00,,SKC,0.01,VWS V14.01,2014-12-28 12:10:00,
2014-12-28 06:15:00,65.2,64.9,30.04,SSE,167,0.0,2.0,99,0.00,,SKC,0.01,VWS V14.01,2014-12-28 12:15:00,
2014-12-28 06:20:00,65.2,64.9,30.05,SSE,167,0.0,2.0,99,0.00,,SKC,0.01,VWS V14.01,2014-12-28 12:20:00,
2014-12-28 06:25:00,65.2,64.9,30.05,SSE,167,0.0,2.0,99,0.00,,SKC,0.01,VWS V14.01,2014-12-28 12:25:00,
2014-12-28 06:30:00,65.1,65.1,30.05,SSE,167,0.0,2.0,100,0.00,,SKC,0.01,VWS V14.01,2014-12-28 12:30:00,
2014-12-28 06:35:00,65.3,65.0,30.05,SSE,167,0.0,3.0,99,0.00,,SKC,0.01,VWS V14.01,2014-12-28 12:35:00,
2014-12-28 06:40:00,65.3,65.0,30.05,SSE,167,0.0,3.0,99,0.00,,SKC,0.01,VWS V14.01,2014-12-28 12:40:00,
2014-12-28 06:45:00,65.4,65.1,30.05,SSE,167,0.0,3.0,99,0.00,,SKC,0.01,VWS V14.01,2014-12-28 12:45:00,
2014-12-28 06:50:00,65.4,65.1,30.05,SSE,167,0.0,3.0,99,0.00,,SKC,0.01,VWS V14.01,2014-12-28 12:50:00,
2014-12-28 06:55:00,65.5,65.2,30.06,SSE,167,0.0,3.0,99,0.00,,SKC,0.01,VWS V14.01,2014-12-28 12:55:00,
2014-12-28 07:00:00,65.4,65.1,30.06,SSE,167,0.0,3.0,99,0.00,,SKC,0.01,VWS V14.01,2014-12-28 13:00:00,
2014-12-28 07:05:00,65.1,65.1,30.06,SSE,167,0.0,0.0,100,0.00,,SKC,0.01,VWS V14.01,2014-12-28 13:05:00,
2014-12-28 07:10:00,64.4,64.4,30.06,SSE,167,0.0,0.0,100,0.00,,SKC,0.01,VWS V14.01,2014-12-28 13:10:00,
2014-12-28 07:15:00,64.2,63.9,30.06,SSE,167,0.0,0.0,99,0.00,,SKC,0.01,VWS V14.01,2014-12-28 13:15:00,
2014-12-28 07:20:00,64.1,63.8,30.06,SSE,167,0.0,0.0,99,0.00,,SKC,0.01,VWS V14.01,2014-12-28 13:20:00,
2014-12-28 07:25:00,64.3,64.0,30.06,SSE,167,0.0,0.0,99,0.00,,SKC,0.01,VWS V14.01,2014-12-28 13:25:00,
2014-12-28 07:30:00,64.7,64.4,30.06,SSE,167,0.0,0.0,99,0.00,,SKC,0.01,VWS V14.01,2014-12-28 13:30:00,
2014-12-28 07:35:00,65.2,65.2,30.07,SSE,167,0.0,0.0,100,0.00,,SKC,0.01,VWS V14.01,2014-12-28 13:35:00,
2014-12-28 07:40:00,65.9,65.9,30.07,SSE,167,0.0,0.0,100,0.00,,SKC,0.01,VWS V14.01,2014-12-28 13:40:00,
2014-12-28 07:45:00,66.2,66.2,30.07,SSE,167,0.0,0.0,100,0.00,,SKC,0.01,VWS V14.01,2014-12-28 13:45:00,
2014-12-28 07:50:00,66.4,66.4,30.07,SSE,167,0.0,0.0,100,0.00,,SKC,0.01,VWS V14.01,2014-12-28 13:50:00,
2014-12-28 07:55:00,66.5,66.5,30.07,SSE,167,1.0,1.0,100,0.00,,SKC,0.01,VWS V14.01,2014-12-28 13:55:00,
2014-12-28 08:00:00,66.7,66.7,30.07,SSE,167,0.0,0.0,100,0.00,,SKC,0.01,VWS V14.01,2014-12-28 14:00:00,
2014-12-28 08:05:00,66.8,66.8,30.07,SSE,167,0.0,3.0,100,0.00,,SKC,0.01,VWS V14.01,2014-12-28 14:05:00,
2014-12-28 08:10:00,66.9,66.9,30.07,SSE,167,1.0,3.0,100,0.00,,SKC,0.01,VWS V14.01,2014-12-28 14:10:00,
2014-12-28 08:15:00,66.8,66.8,30.07,SSE,167,2.0,3.0,100,0.00,,SKC,0.01,VWS V14.01,2014-12-28 14:15:00,
2014-12-28 08:20:00,66.5,66.5,30.07,SSE,167,3.0,4.0,100,0.00,,SKC,0.01,VWS V14.01,2014-12-28 14:20:00,
2014-12-28 08:25:00,66.4,66.4,30.07,SSE,167,0.0,4.0,100,0.00,,SKC,0.01,VWS V14.01,2014-12-28 14:25:00,
2014-12-28 08:30:00,66.5,66.5,30.07,SSE,167,0.0,0.0,100,0.00,,SKC,0.01,VWS V14.01,2014-12-28 14:30:00,
2014-12-28 08:35:00,66.5,66.5,30.07,SSE,167,0.0,0.0,100,0.00,,SKC,0.01,VWS V14.01,2014-12-28 14:35:00,
2014-12-28 08:40:00,66.6,66.6,30.07,SSE,167,0.0,0.0,100,0.00,,SKC,0.01,VWS V14.01,2014-12-28 14:40:00,
2014-12-28 08:45:00,66.9,66.9,30.07,SSE,167,0.0,0.0,100,0.00,,SKC,0.01,VWS V14.01,2014-12-28 14:45:00,
2014-12-28 08:50:00,67.0,67.0,30.08,SSE,167,0.0,0.0,100,0.00,,SKC,0.01,VWS V14.01,2014-12-28 14:50:00,
2014-12-28 08:55:00,67.0,67.0,30.08,SSE,167,0.0,0.0,100,0.00,,SKC,0.01,VWS V14.01,2014-12-28 14:55:00,
2014-12-28 09:00:00,66.6,66.6,30.08,SSE,167,0.0,0.0,100,0.00,,SKC,0.01,VWS V14.01,2014-12-28 15:00:00,
2014-12-28 09:05:00,66.7,66.7,30.08,SSE,167,0.0,0.0,100,0.00,,SKC,0.01,VWS V14.01,2014-12-28 15:05:00,
2014-12-28 09:10:00,66.7,66.7,30.08,SSE,167,0.0,0.0,100,0.00,,SKC,0.01,VWS V14.01,2014-12-28 15:10:00,
2014-12-28 09:15:00,66.9,66.9,30.08,SSE,167,0.0,0.0,100,0.00,,SKC,0.01,VWS V14.01,2014-12-28 15:15:00,
2014-12-28 09:20:00,67.2,67.2,30.08,SSE,167,0.0,2.0,100,0.00,,SKC,0.01,VWS V14.01,2014-12-28 15:20:00,
2014-12-28 09:25:00,67.6,67.6,30.08,NW,313,3.0,4.0,100,0.00,,SKC,0.01,VWS V14.01,2014-12-28 15:25:00,